Vorticity
61 13 15 7 6 5 8 4 6 -1 10 18 14 11 15 11 8 7 9 7 5 4 7 7 9 3 4 6 8 6 5 4 7 5 3 3 4 3 4 6 3 3 3
40 10 12 3 6 9 9 12 4 1 4 17 14 9 9 13 13 11 9 9 10 9 8 5 4 2 6 6 3 6 10 9 11 9 9 9 6 2 4 6 5 4 2
-6 -1 -2 -7 11 13 12 14 5 4 18 19 11 11 9 10 10 12 12 11 9 9 8 8 10 10 8 5 3 7 4 5 11 6 -10 71 -2 6 4 5 8 5 3
28 19 1 21 7 7 10 5 2 9 14 12 11 10 8 9 10 12 12 11 13 12 10 8 8 7 8 7 7 14 8 8 8 25 27 -58 30 -3 11 5 9 8 3
6 21 2 -5 30 -6 -7 11 7 5 3 5 9 12 11 11 12 11 13 14 11 10 12 13 11 10 10 12 14 12 4 10 8 -0 15 10 21 -31 53 3 4 10 5
24 4 25 15 8 16 11 -9 -12 10 6 0 2 -4 1 11 11 12 12 17 17 14 12 10 10 10 11 9 9 14 12 9 6 4 -0 8 8 30 7 24 5 11 3
-3 8 -5 6 9 3 2 6 21 18 5 3 8 10 11 7 8 10 12 13 13 13 17 18 16 19 22 22 20 16 13 7 9 7 23 13 14 12 1 18 7 16 8
49 21 10 11 7 5 10 12 4 3 1 10 11 11 11 13 10 11 9 12 12 11 13 11 10 10 10 10 20 21 19 21 9 4 73 13 20 7 8 16 10 8 4
21 10 -1 5 13 5 5 5 1 -0 8 8 11 10 14 14 12 12 9 7 11 12 10 13 15 11 14 5 16 26 16 8 -1 18 25 13 2 -1 34 2 3 -2 6
-3 -2 3 -2 5 11 10 4 5 8 6 8 10 9 10 14 12 11 9 8 9 10 10 13 11 17 12 14 10 -1 27 -0 40 46 33 -1 10 19 15 8 12 -4 10
1 6 4 5 7 -1 10 10 11 10 11 13 13 15 17 13 10 7 6 7 10 11 11 11 11 11 15 13 14 18 19 12 -2 14 5 10 6 10 21 -10 13 -5 6
-5 -6 1 9 9 9 10 10 9 10 11 14 17 13 15 15 13 9 8 6 11 14 18 11 8 9 6 4 18 17 12 9 11 2 20 4 15 19 -5 46 -1 1 5
1 -0 5 8 10 11 10 10 11 13 15 16 15 13 13 13 14 13 9 9 11 13 18 21 9 2 -0 5 7 16 6 51 -2 3 18 12 5 23 -1 21 -5 2 12
3 4 7 10 10 10 11 10 9 11 13 14 13 13 14 14 13 16 15 16 17 16 12 12 21 27 14 11 4 13 8 15 7 18 4 33 4 23 18 -3 35 8 -13
4 5 9 14 12 13 12 10 14 15 14 13 16 14 15 17 19 17 22 26 19 10 -0 27 30 22 43 3 7 41 18 60 -26 23 3 26 27 62 16 8 12 0 30
5 15 17 14 15 18 16 15 15 14 13 16 14 14 16 17 18 21 21 22 19 18 24 20 12 31 11 -17 1 15 58 53 45 4 35 41 -1 16 8 -10 3 25 20
16 20 14 14 14 13 18 17 15 13 12 11 13 12 13 13 13 17 24 25 28 27 32 27 21 7 16 4 31 13 6 30 -1 14 9 -4 13 1 -4 7 -5 24 11
14 12 12 13 15 14 15 13 11 9 10 12 12 10 10 9 7 7 6 7 9 11 19 36 32 43 30 27 46 -8 2 31 29 20 -5 23 5 -7 3 42 -7 12 16
9 14 14 14 14 12 12 10 10 11 11 11 8 8 6 6 5 7 7 8 8 7 5 7 10 33 33 38 29 32 18 40 12 54 30 10 8 -0 25 29 -5 2 6
14 13 12 11 12 12 12 12 14 13 14 8 6 8 8 9 9 8 9 7 6 7 11 11 7 6 6 21 22 38 40 38 21 27 37 44 -30 29 11 4 -4 -2 7
11 11 12 13 11 13 14 16 14 12 10 8 9 9 9 8 8 6 7 7 7 8 8 7 8 11 10 7 3 13 29 42 42 30 15 34 19 -22 -18 26 5 1 -0
13 12 13 14 14 11 8 9 11 11 8 8 7 6 6 5 5 5 5 5 5 6 6 6 7 7 7 7 8 10 7 3 5 30 40 37 41 35 29 5 6 19 7
12 11 10 8 9 10 10 9 10 6 5 5 6 6 6 6 6 5 5 6 5 5 5 5 5 5 6 5 6 9 9 7 10 10 5 2 20 21 49 38 25 18 18
8 9 9 9 9 10 7 5 5 6 7 7 7 7 6 6 6 6 7 7 7 7 7 6 6 5 5 5 5 5 6 6 9 7 7 10 7 7 6 18 17 40 31
8 9 9 9 7 5 6 7 7 7 6 6 7 7 8 8 8 8 8 6 6 6 6 6 6 5 6 6 7 6 5 4 5 7 9 9 5 8 14 10 5 12 15
9 9 7 5 6 7 7 7 7 7 8 7 8 8 8 7 6 6 6 5 6 6 6 7 9 8 8 7 6 6 7 7 6 6 6 7 8 10 6 6 13 12 10
Height
3049 3045 3047 3051 3053 3056 3059 3063 3066 3068 3067 3065 3066 3067 3068 3068 3068 3069 3071 3072 3073 3074 3075 3076 3077 3078 3079 3081 3084 3086 3087 3090 3092 3092 3093 3093 3094 3097 3101 3103 3106 3108 3106
3049 3037 3042 3046 3049 3050 3053 3057 3059 3061 3061 3061 3059 3058 3059 3061 3062 3062 3062 3062 3063 3064 3065 3066 3067 3069 3070 3072 3072 3076 3079 3080 3081 3079 3081 3080 3084 3086 3091 3094 3097 3100 3101
3043 3040 3042 3042 3043 3045 3049 3052 3054 3054 3054 3054 3054 3051 3051 3052 3053 3054 3054 3054 3053 3053 3054 3055 3056 3057 3059 3060 3062 3064 3068 3071 3070 3071 3073 3037 3063 3078 3083 3086 3090 3092 3093
3031 3032 3036 3037 3037 3039 3043 3046 3048 3048 3048 3048 3047 3046 3044 3045 3045 3044 3044 3045 3044 3044 3044 3043 3044 3045 3046 3047 3050 3052 3055 3059 3058 3060 3064 3045 3039 3066 3075 3077 3081 3084 3085
3027 3023 3026 3030 3031 3035 3037 3040 3042 3042 3042 3040 3041 3040 3038 3038 3038 3036 3035 3035 3034 3033 3033 3033 3032 3032 3033 3034 3037 3039 3042 3045 3047 3048 3053 3056 3053 3059 3068 3069 3072 3074 3077
3018 3020 3021 3026 3029 3031 3034 3035 3037 3037 3036 3034 3033 3032 3031 3029 3029 3027 3026 3026 3025 3024 3022 3021 3020 3020 3019 3019 3024 3026 3028 3032 3035 3038 3040 3044 3047 3048 3052 3060 3065 3064 3067
3007 3010 3017 3021 3023 3025 3028 3032 3033 3033 3030 3028 3026 3023 3023 3021 3019 3018 3017 3016 3016 3014 3013 3010 3009 3009 3009 3009 3011 3010 3015 3018 3021 3023 3029 3034 3037 3039 3045 3049 3053 3053 3058
3003 3008 3014 3017 3019 3022 3024 3028 3029 3027 3024 3022 3019 3018 3015 3013 3011 3008 3007 3006 3004 3003 3002 3001 3000 3000 3000 2999 2998 2998 3001 3006 3008 3010 3008 3017 3024 3028 3031 3038 3041 3043 3048
3004 3003 3007 3013 3015 3017 3020 3020 3020 3018 3017 3015 3012 3009 3007 3005 3003 3000 2997 2996 2995 2993 2992 2992 2990 2989 2989 2989 2988 2988 2990 2993 2996 3000 3003 3006 3011 3016 3020 3026 3028 3035 3037
3001 3003 3005 3008 3013 3015 3015 3012 3010 3009 3008 3005 3004 3002 2999 2997 2995 2992 2989 2987 2985 2984 2983 2982 2980 2980 2980 2979 2979 2979 2981 2984 2984 2984 2989 2998 3002 3006 3010 3014 3017 3023 3028
3011 3011 3011 3012 3011 3009 3009 3007 3006 3004 3002 3000 2997 2995 2992 2990 2987 2984 2981 2978 2976 2973 2972 2972 2972 2971 2970 2970 2969 2969 2972 2974 2975 2978 2984 2989 2992 2997 3001 3006 3010 3014 3018
3014 3012 3012 3012 3010 3008 3005 3002 2999 2997 2994 2992 2990 2986 2984 2982 2980 2977 2973 2970 2967 2964 2962 2962 2962 2963 2961 2962 2960 2960 2963 2965 2968 2971 2976 2978 2980 2986 2991 2994 3002 3005 3008
3009 3008 3009 3007 3005 3002 2999 2996 2994 2991 2989 2988 2985 2980 2978 2975 2972 2969 2966 2962 2959 2955 2952 2952 2953 2953 2953 2952 2951 2951 2954 2955 2960 2962 2963 2968 2972 2976 2980 2987 2992 2995 2998
3007 3005 3002 2999 2998 2995 2993 2991 2987 2985 2984 2982 2979 2975 2972 2969 2966 2963 2959 2955 2951 2947 2945 2944 2943 2943 2943 2943 2944 2944 2945 2947 2949 2951 2953 2957 2961 2967 2974 2978 2978 2981 2983
3004 3002 3000 2997 2995 2991 2988 2985 2983 2982 2979 2977 2974 2972 2968 2964 2961 2957 2952 2947 2944 2940 2939 2938 2935 2934 2933 2934 2936 2933 2934 2933 2933 2937 2945 2948 2944 2948 2961 2966 2968 2970 2974
3004 3000 2997 2994 2991 2987 2985 2983 2981 2979 2977 2975 2971 2969 2966 2963 2958 2953 2947 2944 2939 2935 2935 2933 2929 2928 2926 2925 2926 2925 2923 2924 2922 2933 2938 2927 2942 2950 2955 2957 2959 2959 2964
2999 2997 2994 2991 2989 2986 2984 2982 2981 2978 2976 2974 2971 2969 2966 2962 2957 2953 2948 2943 2938 2936 2932 2928 2923 2921 2920 2919 2919 2918 2919 2920 2921 2921 2929 2935 2939 2944 2948 2950 2951 2952 2956
2994 2992 2990 2988 2986 2984 2983 2982 2980 2978 2976 2974 2971 2969 2966 2962 2959 2955 2951 2946 2941 2937 2932 2925 2920 2915 2913 2912 2912 2911 2912 2913 2915 2919 2920 2927 2933 2936 2940 2941 2940 2947 2951
2990 2988 2986 2985 2984 2983 2983 2982 2980 2978 2976 2974 2972 2969 2965 2963 2960 2957 2953 2950 2946 2941 2935 2928 2923 2917 2912 2908 2906 2906 2906 2907 2907 2910 2913 2919 2924 2927 2931 2932 2935 2940 2943
2988 2987 2986 2985 2985 2984 2983 2982 2981 2979 2977 2974 2973 2971 2967 2964 2961 2958 2955 2954 2950 2944 2939 2934 2928 2922 2917 2911 2907 2905 2903 2904 2904 2906 2907 2907 2913 2918 2924 2927 2929 2930 2938
2988 2987 2986 2986 2986 2985 2984 2983 2982 2981 2978 2975 2975 2971 2969 2966 2963 2960 2958 2955 2951 2947 2942 2937 2933 2927 2921 2916 2913 2909 2907 2905 2904 2903 2902 2904 2907 2908 2916 2918 2921 2923 2926
2988 2987 2987 2987 2987 2986 2985 2985 2984 2982 2979 2977 2975 2973 2971 2967 2965 2962 2959 2956 2953 2949 2944 2939 2935 2929 2924 2920 2916 2913 2910 2908 2906 2905 2904 2902 2902 2903 2905 2907 2910 2913 2916
2987 2987 2988 2988 2988 2987 2986 2986 2985 2983 2980 2977 2977 2975 2972 2969 2966 2963 2960 2956 2953 2949 2944 2939 2935 2930 2926 2922 2919 2916 2912 2910 2909 2907 2905 2903 2902 2901 2900 2900 2901 2903 2905
2986 2987 2988 2988 2988 2989 2988 2987 2984 2982 2981 2979 2978 2975 2972 2969 2966 2963 2959 2956 2952 2948 2943 2939 2934 2930 2926 2924 2920 2917 2914 2912 2909 2907 2904 2903 2902 2903 2902 2900 2899 2898 2898
2987 2988 2989 2990 2990 2990 2988 2986 2985 2984 2982 2980 2977 2974 2971 2968 2965 2961 2957 2952 2948 2943 2939 2935 2932 2928 2924 2921 2919 2916 2913 2910 2908 2905 2904 2903 2902 2901 2899 2898 2897 2896 2896
2989 2990 2991 2991 2991 2989 2988 2987 2986 2984 2982 2980 2977 2975 2971 2967 2963 2959 2954 2949 2945 2941 2936 2932 2928 2924 2920 2917 2914 2912 2910 2908 2905 2903 2900 2900 2899 2897 2896 2895 2893 2894 2894